Temperature
19 19 19 19 19 18 18 18 18 18 18 18 18 18 18 18 18 18 18 18 18 18 18 18 18 18 18 18 18 18 18 19 19 19 19 19 18 18 18 18 18 18 18
19 19 19 19 19 19 18 18 18 18 18 18 18 18 18 18 18 18 18 18 18 18 18 18 18 18 18 18 18 18 19 19 19 19 19 18 18 18 18 17 17 18 18
19 19 19 19 19 19 18 18 18 18 18 18 18 18 18 18 18 18 18 18 18 18 18 18 18 18 18 18 18 18 19 19 19 18 18 18 18 18 18 18 17 18 17
19 19 19 19 19 19 19 18 18 18 18 18 18 18 18 18 18 18 18 18 18 18 18 18 18 18 18 18 18 18 18 18 18 18 17 17 18 18 18 18 17 17 17
19 19 19 19 19 19 18 18 18 18 18 18 18 18 18 18 18 18 18 18 18 18 18 18 18 18 18 18 18 18 18 18 18 18 17 17 18 18 18 17 17 17 17
19 19 19 19 19 19 19 18 19 18 18 18 18 18 18 18 18 18 18 18 18 18 18 18 18 18 18 18 18 18 18 18 18 18 18 18 18 18 18 17 17 17 17
19 19 19 19 19 19 19 19 19 19 18 18 18 18 18 18 18 18 18 18 18 18 18 18 18 18 18 18 18 18 18 18 18 18 18 18 18 18 18 17 17 17 17
20 19 20 19 19 19 19 19 19 19 19 18 18 18 18 18 18 18 18 18 18 18 18 18 18 18 18 18 18 18 18 18 18 18 18 18 18 18 18 17 17 17 17
20 19 19 19 19 19 19 19 19 19 19 19 18 18 18 18 18 18 18 18 18 18 18 18 18 18 18 19 19 19 18 18 18 18 18 18 18 18 18 17 17 17 17
21 20 19 19 19 19 19 19 19 19 19 19 19 19 19 18 18 18 18 18 18 18 19 19 18 18 19 19 19 19 19 19 18 18 18 18 18 18 18 18 17 17 17
21 21 20 20 19 19 19 19 19 19 19 19 19 18 18 18 18 18 18 18 19 19 19 19 19 19 19 19 19 19 19 19 18 18 18 18 18 18 18 18 17 17 17
21 21 21 20 20 19 19 19 19 19 19 19 18 18 18 18 18 18 18 18 19 19 19 18 18 18 19 18 19 19 19 18 18 18 18 18 18 18 18 18 17 17 17
21 21 21 20 20 20 19 19 19 19 19 19 18 18 19 18 18 18 18 18 18 18 18 18 18 18 18 18 18 19 19 19 19 18 18 18 18 18 18 18 18 17 17
21 21 20 20 20 20 20 19 19 19 19 19 19 19 19 19 18 18 18 18 18 18 18 18 18 18 18 18 18 18 18 19 18 18 18 18 18 18 18 18 17 17 17
21 21 20 20 19 19 19 19 19 19 19 19 19 19 19 19 19 19 19 19 19 19 18 18 18 18 18 18 18 18 18 18 18 18 18 18 18 18 18 18 17 17 17
21 20 20 20 19 19 19 19 19 19 19 19 19 19 19 19 19 19 19 19 19 19 19 18 18 18 18 18 18 18 18 18 18 18 18 18 18 18 17 17 17 17 17
21 20 20 20 19 19 19 19 19 19 19 19 19 19 19 19 19 19 19 19 19 19 19 18 18 18 18 18 18 18 18 18 18 18 18 17 17 17 17 17 17 17 17
21 20 20 20 19 19 19 19 19 19 19 19 19 19 19 19 19 19 19 19 19 19 19 19 18 18 18 18 18 18 18 18 18 18 17 17 17 17 17 17 17 17 17
20 20 20 20 19 19 19 19 19 19 19 19 19 19 19 19 19 19 19 19 19 19 19 18 18 18 18 18 18 18 18 18 18 18 17 17 17 17 17 17 17 17 16
20 20 20 19 19 19 19 19 19 19 19 19 19 19 19 19 19 19 19 19 19 19 19 19 19 18 18 18 18 18 18 18 18 17 17 17 17 17 16 16 16 16 16
20 20 20 19 19 19 19 19 19 19 19 19 19 19 19 19 19 19 19 19 19 19 19 19 18 18 18 18 18 18 18 18 18 17 17 17 17 17 16 16 16 16 16
21 20 20 20 19 19 19 19 19 19 19 19 19 19 19 19 19 19 19 19 19 19 19 18 18 18 18 18 18 18 18 17 18 17 17 17 17 17 16 16 16 16 16
21 20 20 20 19 19 19 19 19 19 19 19 19 19 19 19 19 19 19 19 19 18 18 18 18 18 18 18 18 18 18 18 17 17 17 17 17 16 16 16 16 15 15
21 21 20 20 20 20 19 19 19 19 19 19 19 19 19 19 18 18 19 19 19 18 18 18 18 18 18 18 18 18 18 18 17 17 17 17 16 16 16 16 16 15 15
22 21 20 20 20 20 19 19 19 19 19 19 19 19 19 19 18 18 18 18 18 18 19 18 18 18 18 18 18 18 18 18 18 17 17 17 16 16 16 16 15 15 15
22 22 21 20 20 20 20 19 19 19 19 19 19 19 19 19 18 18 18 18 18 18 18 18 18 18 18 18 18 18 18 18 18 18 17 17 16 16 16 15 15 15 14
Wind_Speed
9 10 11 13 13 13 13 14 15 15 16 16 16 17 17 16 16 16 16 16 16 15 14 14 14 14 14 15 15 15 14 15 16 17 17 16 15 14 13 14 14 14 15
10 11 12 13 13 14 14 14 15 16 16 16 16 16 16 16 16 16 15 16 16 15 14 13 14 14 14 14 14 13 13 14 14 15 16 15 14 13 12 12 13 13 15
11 10 12 13 13 14 14 14 15 15 15 15 15 15 16 16 16 16 15 15 15 14 13 13 13 14 14 13 13 12 11 11 12 13 14 14 13 12 13 15 16 15 14
11 11 12 13 14 14 14 14 14 14 14 14 14 14 15 15 15 15 15 14 13 13 12 12 13 13 13 12 11 10 9 9 10 10 9 12 13 13 13 14 14 14 13
12 13 13 13 13 14 14 14 14 14 14 14 14 14 14 15 15 14 14 14 13 12 12 12 13 13 13 11 10 8 7 6 6 7 8 13 13 13 13 13 13 13 12
12 13 14 14 14 14 13 13 13 13 13 13 14 14 14 14 14 14 14 13 13 12 12 12 13 13 12 10 8 6 4 4 4 3 8 14 14 13 13 12 12 12 11
13 14 14 15 14 13 13 13 12 12 12 13 13 13 13 13 14 13 13 13 13 12 12 12 12 11 10 8 6 4 2 3 4 3 9 14 14 14 12 12 11 11 11
14 14 14 14 14 13 12 12 12 12 12 12 12 12 12 13 13 13 12 13 13 12 11 11 11 10 9 7 4 2 2 5 1 5 12 14 15 14 12 11 11 11 11
13 13 12 13 13 12 12 12 11 11 11 11 10 11 12 13 13 12 12 12 12 12 11 10 10 9 8 6 3 2 3 4 3 3 11 13 15 14 12 11 11 11 10
11 11 11 12 12 11 11 11 11 11 10 10 9 10 11 12 12 12 12 11 11 11 10 9 9 7 6 5 3 3 4 5 2 4 9 13 15 14 12 11 11 10 10
9 8 8 11 10 9 11 12 11 10 10 9 9 9 8 8 10 11 12 12 10 10 9 8 8 7 5 5 4 4 4 3 3 6 10 16 15 14 12 11 10 10 9
8 8 7 8 7 7 8 9 8 8 8 6 6 7 7 6 6 9 12 12 10 9 8 8 8 7 6 5 6 6 4 3 3 6 11 17 14 13 12 11 10 9 9
7 7 8 8 6 6 5 5 4 5 7 6 5 6 6 6 6 8 7 8 8 8 6 8 8 7 7 5 4 5 4 2 3 7 12 16 14 12 11 10 9 9 8
7 7 7 8 6 5 5 4 4 3 4 4 5 4 4 3 3 4 3 4 5 5 4 5 4 4 3 2 2 1 1 2 4 8 12 14 13 11 10 9 9 8 8
8 8 7 7 6 5 4 3 3 4 4 5 5 4 4 3 3 3 2 2 2 3 4 2 3 2 2 1 1 2 2 3 3 6 9 13 12 11 10 9 8 8 8
8 7 7 7 6 5 3 2 2 4 4 4 4 4 4 3 3 2 2 2 1 1 2 2 2 2 2 2 1 2 2 2 4 5 7 9 10 10 10 8 8 7 7
8 7 6 7 6 4 3 1 2 3 4 4 4 4 3 3 2 1 1 2 1 2 3 3 2 2 2 2 2 2 1 2 3 3 5 6 7 8 8 7 7 7 7
8 7 4 6 8 5 3 1 2 3 4 3 4 4 3 2 1 1 1 1 1 2 2 2 1 1 1 1 1 1 2 3 2 3 4 4 5 6 6 6 6 6 6
7 7 5 5 6 5 3 1 1 2 2 2 3 2 3 2 1 1 2 1 1 1 1 1 2 2 1 1 1 1 1 2 2 2 2 3 4 6 6 6 5 4 4
8 7 6 5 5 4 3 1 1 1 2 2 2 2 3 1 1 2 2 1 1 1 1 1 1 1 1 1 1 2 1 2 2 2 2 2 3 5 6 6 5 4 4
8 7 6 5 5 3 2 1 1 1 1 1 2 2 2 1 2 2 2 1 0 1 1 1 1 1 1 2 1 1 1 2 2 2 1 2 2 4 5 6 5 5 5
9 8 7 6 6 4 3 2 1 1 1 2 2 2 1 1 2 1 2 1 1 1 1 1 1 0 1 2 1 1 1 1 1 2 2 2 2 3 4 5 5 5 5
10 9 7 6 6 4 4 2 1 1 0 1 2 2 1 1 2 2 2 2 1 1 1 0 1 0 1 1 1 1 1 1 1 1 2 2 3 2 3 4 5 5 6
12 10 8 7 6 4 3 2 2 2 1 1 2 2 2 2 2 2 2 2 2 2 1 1 2 1 1 1 0 1 1 2 1 1 1 2 3 2 2 3 4 6 7
13 12 10 8 6 5 4 3 2 1 2 2 2 3 2 2 1 1 1 1 2 2 2 2 2 2 1 1 1 0 0 1 2 2 2 1 2 2 2 2 3 6 7
12 12 11 9 7 6 5 3 2 1 1 2 2 2 2 2 1 2 2 2 2 2 1 2 2 2 2 2 2 1 0 0 0 1 2 2 2 2 2 2 3 4 6
Wind_Direction
69 67 66 72 72 74 77 79 85 88 90 94 96 97 100 103 104 108 112 116 117 117 118 119 118 114 111 109 108 109 110 111 114 116 117 118 119 120 123 125 121 114 117
83 78 73 73 75 78 81 83 86 88 90 94 96 96 98 103 105 107 111 115 116 116 116 117 117 115 112 112 113 114 116 118 122 127 127 123 122 121 120 121 113 118 121
90 90 82 75 79 83 84 85 88 90 90 93 95 97 99 103 105 108 110 113 115 115 114 117 120 119 115 115 117 118 122 128 135 142 140 128 124 121 116 114 116 122 123
94 92 88 85 84 85 85 88 90 93 93 95 97 99 103 104 106 108 111 112 114 114 114 116 120 121 119 119 122 126 133 143 152 163 163 135 126 123 120 120 121 124 124
92 94 95 93 90 90 89 90 93 94 96 100 103 104 104 104 105 109 109 109 109 108 112 115 119 123 122 124 127 136 150 166 180 194 145 121 116 128 126 125 126 127 126
101 99 98 97 96 96 93 91 94 96 98 102 105 106 107 108 109 110 111 110 106 105 106 107 113 118 121 125 131 142 168 209 232 188 129 119 121 131 132 132 133 132 130
103 104 104 101 98 96 95 95 94 96 99 103 104 108 110 112 113 113 114 113 111 108 106 108 112 117 121 126 132 150 208 262 255 139 117 114 125 136 138 139 137 136 135
105 105 109 107 104 101 99 99 98 99 102 104 108 113 116 118 117 117 116 116 115 113 112 113 118 121 122 126 132 168 264 295 230 127 118 119 134 140 143 144 145 141 141
106 110 116 117 113 110 107 105 104 106 110 111 115 121 125 126 125 125 123 120 120 120 120 122 126 127 132 140 162 220 275 302 305 116 126 127 139 141 145 148 148 148 148
102 110 119 120 120 125 121 119 118 117 118 120 121 125 130 136 136 133 130 126 126 128 130 133 133 136 145 163 195 240 275 295 227 107 118 132 142 146 147 148 150 154 156
97 101 110 115 124 128 124 126 134 131 130 130 135 139 143 151 146 145 131 134 135 139 143 146 148 156 171 197 215 244 271 258 145 120 118 135 142 144 148 152 157 162 164
98 102 100 100 109 114 113 132 147 139 140 151 138 144 155 151 143 136 138 144 148 152 157 166 172 182 202 210 210 222 241 212 135 117 126 141 146 148 151 156 161 167 172
104 93 96 89 83 84 94 123 125 131 136 141 137 142 141 136 138 131 142 152 164 171 182 178 189 202 205 204 189 195 220 148 129 114 132 143 147 152 157 162 167 175 183
106 96 88 93 80 59 64 84 108 108 117 117 123 114 110 93 87 106 132 154 169 174 176 174 184 195 201 183 168 132 75 82 101 113 136 145 151 157 159 163 171 179 187
110 104 96 90 86 80 57 27 88 95 97 108 107 96 101 105 106 109 103 114 132 160 165 172 150 128 89 70 71 94 81 78 96 117 139 151 157 164 165 168 175 185 193
115 110 108 109 102 96 99 53 55 88 102 102 103 96 102 101 96 111 135 114 120 160 142 141 127 133 138 124 102 77 80 94 106 116 132 152 161 164 170 176 184 187 192
119 119 124 126 113 104 99 76 84 98 109 103 108 103 100 110 121 127 154 158 175 170 159 151 165 150 152 155 152 140 134 116 103 112 128 146 161 172 181 187 195 196 198
124 119 125 122 123 122 106 37 40 66 93 97 112 117 115 124 136 162 127 130 188 180 161 139 141 121 137 141 129 146 139 125 132 126 130 144 150 158 169 184 194 195 201
128 127 121 100 116 122 121 123 106 89 83 94 106 120 125 119 119 121 87 57 270 128 93 133 127 144 149 143 158 157 143 135 145 132 137 129 139 146 153 166 176 177 181
133 134 133 126 115 120 118 104 79 86 101 98 94 104 106 98 74 47 99 52 3 68 57 68 91 134 165 163 143 107 119 141 132 131 156 121 119 137 135 138 142 137 134
141 143 143 138 129 131 125 129 114 118 111 112 121 104 94 65 67 71 44 107 93 97 80 85 102 205 176 142 128 140 165 125 133 134 121 99 94 95 101 112 125 129 124
148 149 149 151 147 150 143 157 172 159 171 132 89 94 96 59 33 60 62 54 69 113 94 36 91 287 229 167 188 181 164 82 64 108 123 128 108 92 100 99 98 103 112
158 162 163 153 143 152 161 172 155 127 285 104 113 118 113 100 87 39 38 31 17 90 94 89 79 324 274 225 204 193 163 134 134 67 70 89 98 96 101 93 91 87 94
164 163 152 148 148 156 174 182 182 166 159 158 139 127 122 87 73 63 51 44 19 55 68 2 74 334 305 292 225 226 157 139 154 139 71 96 106 95 93 105 96 94 91
168 163 156 152 155 159 181 184 201 180 168 140 121 117 129 126 130 81 63 55 48 57 57 27 31 19 5 2 324 324 108 161 179 168 168 157 112 93 92 100 107 99 98
167 164 159 155 160 166 179 175 170 159 94 94 121 149 192 155 118 78 71 45 58 57 45 40 350 39 27 4 339 323 275 143 182 152 165 164 139 115 103 91 95 99 106
Height
1493 1489 1486 1488 1488 1489 1489 1489 1489 1490 1491 1492 1494 1495 1497 1499 1500 1502 1504 1506 1509 1511 1513 1515 1517 1519 1521 1523 1525 1527 1529 1531 1533 1534 1536 1537 1539 1541 1542 1543 1544 1546 1547
1495 1493 1492 1492 1492 1492 1492 1492 1493 1494 1495 1496 1497 1498 1500 1501 1503 1505 1507 1509 1511 1513 1514 1516 1518 1521 1523 1525 1527 1529 1531 1533 1535 1536 1537 1539 1540 1542 1543 1544 1546 1547 1549
1497 1496 1495 1494 1494 1495 1495 1495 1496 1497 1498 1499 1500 1501 1503 1504 1506 1507 1509 1511 1513 1514 1516 1518 1519 1521 1524 1527 1529 1531 1533 1535 1537 1538 1539 1540 1541 1543 1545 1546 1547 1549 1550
1500 1499 1498 1498 1498 1498 1498 1499 1499 1500 1501 1502 1503 1504 1506 1507 1508 1510 1512 1513 1515 1516 1516 1517 1518 1521 1525 1528 1530 1533 1535 1537 1538 1539 1541 1542 1543 1545 1546 1547 1548 1550 1551
1502 1502 1501 1500 1500 1501 1501 1502 1502 1503 1504 1505 1506 1507 1508 1510 1511 1513 1514 1515 1516 1517 1518 1518 1519 1522 1526 1530 1532 1535 1537 1538 1540 1541 1543 1543 1544 1546 1547 1548 1549 1550 1552
1505 1504 1504 1503 1503 1503 1504 1505 1505 1506 1506 1507 1508 1510 1511 1512 1513 1515 1516 1518 1519 1520 1520 1520 1521 1524 1528 1531 1534 1536 1538 1539 1541 1542 1544 1545 1545 1547 1548 1549 1550 1551 1552
1507 1507 1507 1507 1506 1507 1507 1507 1508 1508 1509 1510 1511 1512 1513 1515 1516 1517 1519 1521 1522 1523 1524 1525 1526 1528 1531 1533 1536 1537 1539 1541 1542 1543 1545 1545 1546 1547 1548 1549 1550 1551 1553
1510 1510 1509 1510 1510 1510 1510 1510 1511 1511 1511 1512 1513 1514 1515 1517 1518 1520 1522 1523 1524 1526 1527 1528 1530 1532 1534 1536 1537 1539 1540 1541 1543 1544 1545 1546 1547 1548 1549 1549 1551 1552 1553
1513 1512 1512 1512 1513 1513 1513 1513 1513 1514 1514 1514 1514 1515 1516 1518 1520 1523 1524 1526 1527 1529 1530 1531 1532 1534 1536 1537 1539 1540 1541 1542 1543 1544 1545 1546 1547 1548 1549 1550 1551 1552 1553
1516 1516 1516 1516 1516 1516 1516 1516 1516 1516 1516 1516 1516 1517 1518 1520 1522 1525 1527 1528 1530 1531 1532 1534 1535 1536 1537 1539 1540 1541 1542 1543 1544 1545 1546 1546 1547 1548 1549 1550 1551 1552 1554
1518 1519 1519 1519 1519 1520 1519 1520 1519 1519 1520 1519 1519 1519 1520 1522 1525 1528 1530 1531 1532 1533 1535 1536 1537 1538 1539 1540 1541 1542 1543 1543 1544 1544 1546 1547 1548 1548 1549 1550 1551 1552 1553
1520 1521 1521 1522 1522 1523 1523 1522 1522 1523 1523 1523 1522 1522 1523 1525 1528 1531 1532 1533 1534 1535 1536 1537 1538 1539 1540 1541 1542 1543 1543 1544 1544 1545 1546 1547 1548 1548 1549 1550 1551 1552 1553
1522 1523 1523 1524 1524 1525 1525 1525 1526 1526 1526 1526 1526 1526 1527 1529 1531 1532 1534 1535 1536 1537 1537 1538 1539 1540 1541 1542 1543 1543 1544 1545 1545 1545 1546 1547 1548 1548 1549 1550 1551 1552 1553
1523 1524 1525 1525 1525 1526 1527 1527 1528 1528 1528 1528 1529 1530 1530 1531 1532 1534 1535 1536 1537 1538 1539 1540 1541 1541 1542 1543 1544 1544 1545 1545 1545 1546 1546 1547 1547 1548 1549 1549 1550 1551 1552
1524 1525 1526 1526 1527 1527 1528 1529 1530 1530 1531 1531 1531 1532 1533 1533 1534 1536 1537 1538 1539 1539 1540 1541 1542 1542 1543 1543 1544 1545 1545 1545 1546 1546 1546 1547 1547 1548 1548 1549 1549 1550 1551
1525 1526 1527 1528 1528 1529 1530 1530 1531 1532 1533 1533 1534 1534 1535 1535 1536 1537 1538 1539 1539 1540 1541 1541 1542 1542 1543 1543 1544 1545 1545 1545 1546 1546 1546 1546 1547 1547 1548 1548 1549 1549 1550
1526 1527 1528 1529 1529 1530 1531 1532 1533 1534 1534 1535 1535 1535 1536 1536 1537 1538 1539 1539 1540 1541 1541 1542 1542 1542 1543 1543 1544 1544 1545 1545 1545 1545 1545 1546 1546 1546 1547 1547 1548 1548 1548
1527 1528 1529 1530 1530 1531 1532 1533 1534 1535 1535 1536 1536 1537 1537 1537 1538 1539 1539 1540 1541 1541 1541 1541 1541 1542 1542 1543 1543 1544 1544 1544 1545 1545 1545 1545 1545 1545 1546 1546 1546 1546 1547
1527 1528 1530 1531 1531 1532 1533 1534 1535 1536 1537 1537 1538 1538 1538 1538 1539 1539 1539 1540 1540 1541 1541 1541 1541 1541 1541 1542 1542 1543 1543 1543 1544 1544 1544 1544 1544 1544 1544 1545 1545 1545 1545
1527 1528 1530 1531 1532 1533 1534 1535 1536 1537 1538 1538 1538 1539 1539 1539 1540 1540 1540 1539 1540 1540 1540 1540 1540 1541 1541 1541 1542 1542 1542 1543 1543 1543 1544 1544 1544 1544 1544 1543 1543 1543 1543
1527 1528 1530 1531 1532 1533 1534 1535 1536 1537 1538 1539 1539 1539 1540 1540 1540 1540 1540 1540 1540 1540 1540 1539 1539 1539 1540 1540 1541 1541 1542 1542 1542 1542 1543 1543 1543 1543 1543 1543 1542 1542 1541
1526 1528 1530 1531 1532 1533 1534 1535 1536 1538 1538 1539 1540 1539 1540 1540 1540 1541 1540 1540 1539 1539 1539 1539 1539 1539 1539 1540 1540 1540 1541 1543 1542 1542 1542 1542 1542 1543 1542 1542 1542 1541 1541
1526 1527 1529 1531 1532 1533 1534 1535 1537 1538 1539 1539 1539 1539 1540 1540 1540 1540 1540 1539 1539 1539 1539 1539 1538 1538 1539 1539 1540 1540 1540 1540 1542 1542 1542 1542 1542 1542 1542 1541 1541 1541 1540
1525 1527 1529 1530 1531 1533 1534 1535 1537 1537 1538 1539 1539 1539 1539 1540 1540 1540 1539 1539 1539 1539 1539 1538 1538 1538 1538 1539 1539 1539 1540 1539 1540 1541 1542 1542 1542 1541 1541 1541 1540 1540 1539
1523 1526 1527 1529 1530 1532 1533 1535 1536 1537 1538 1538 1539 1539 1539 1539 1539 1539 1539 1539 1538 1538 1538 1538 1537 1537 1537 1537 1538 1538 1538 1539 1539 1540 1541 1541 1541 1541 1540 1540 1540 1539 1538
1522 1524 1526 1527 1529 1531 1532 1534 1535 1536 1537 1538 1538 1539 1539 1539 1539 1539 1538 1538 1538 1537 1537 1537 1537 1537 1537 1537 1537 1537 1538 1538 1538 1539 1539 1540 1540 1540 1540 1540 1539 1538 1538